Date String (YYYY-MM-DD hh:mm:ss) UTC,Instrument flags,absolute air pressure of the measurement (hPa),sample flow rate (lpm),inlet stack bypass flow (lpm),air temperature of the measurement (°C),ambient temperature measured by the external sensor (°C),aerosol sample conditioner tube jacket temperature (°C),OPC LED temperature (°C),internal box temperature (°C),relative humidity of the measurement (%),span deviation,mass concentration of particles derived from Lorenz-Mie calculation of OPC scattering (μg/m³),mass concentration of particles derived from Lorenz-Mie calculation of OPC scattering (μg/m³),mass concentration of particles derived from Lorenz-Mie calculation of OPC scattering (μg/m³)
DateTimeUTC,F1_M11,P_M11,Q1_M11,Q2_M11,T1_M11,T2_M11,T3_M11,T4_M11,T5_M11,U1_M11,ZSPAN_M11,X0_M11,X2_M11,X1_M11
2024-05-10 18:00:00,SystemResetWarning,0836.4,5.01,000.00,025.1,022.5,000.0,033.8,026.0,021.4,0000.0,0007.56,0004.36,0003.97
2024-05-10 18:01:00,SystemResetWarning,0836.4,5.01,000.00,024.9,022.3,000.0,033.7,025.8,021.6,0000.0,0008.37,0004.57,0004.14
2024-05-10 18:02:00,SystemResetWarning,0836.4,5.00,000.00,024.8,022.6,000.0,033.6,026.0,021.7,0000.0,0008.78,0004.74,0004.30
2024-05-10 18:03:00,SystemResetWarning,0836.4,5.00,000.00,024.8,022.9,000.0,033.5,026.2,022.0,0000.0,0010.21,0004.93,0004.46
2024-05-10 18:04:00,SystemResetWarning,0836.4,4.99,000.00,024.8,023.3,000.0,033.4,026.4,022.6,0000.0,0010.60,0005.12,0004.61
2024-05-10 18:05:00,SystemResetWarning,0836.4,5.00,000.00,024.9,023.6,000.0,033.3,026.5,022.2,0000.0,0012.01,0005.27,0004.76
2024-05-10 18:06:00,SystemResetWarning,0836.4,5.00,000.00,024.9,023.8,000.0,033.3,026.6,021.8,0000.0,0012.62,0005.41,0004.87
2024-05-10 18:07:00,SystemResetWarning,0836.4,5.00,000.00,025.0,024.0,000.0,033.3,026.7,022.1,0000.0,0012.52,0005.50,0004.95
2024-05-10 18:08:00,SystemResetWarning,0836.4,5.01,000.00,025.0,024.2,000.0,033.3,026.8,021.7,0000.0,0013.23,0005.59,0005.04
2024-05-10 18:09:00,SystemResetWarning,0836.4,4.99,000.00,025.1,024.3,000.0,033.3,026.8,021.2,0000.0,0013.48,0005.58,0005.05
2024-05-10 18:10:00,SystemResetWarning,0836.4,5.00,000.00,025.1,024.5,000.0,033.3,026.9,021.5,0000.0,0013.78,0005.49,0004.99
2024-05-10 18:11:00,SystemResetWarning,0836.4,4.99,000.00,025.2,024.6,000.0,033.3,027.0,021.0,0000.0,0013.68,0005.39,0004.91
2024-05-10 18:12:00,SystemResetWarning,0836.4,5.00,000.00,025.2,024.7,000.0,033.4,027.0,020.7,0000.0,0013.08,0005.27,0004.81
2024-05-10 18:13:00,SystemResetWarning,0836.4,5.01,000.00,025.3,024.8,000.0,033.4,027.1,020.5,0000.0,0012.73,0005.20,0004.74
2024-05-10 18:14:00,SystemResetWarning,0836.4,5.00,000.00,025.3,024.8,000.0,033.4,027.1,021.1,0000.0,0011.92,0005.11,0004.67
2024-05-10 18:15:00,SystemResetWarning,0836.4,5.01,000.00,025.3,024.9,000.0,033.5,027.2,020.8,0000.0,0011.59,0005.04,0004.62
2024-05-10 18:16:00,SystemResetWarning,0836.4,5.00,000.00,025.4,025.0,000.0,033.5,027.2,020.5,0000.0,0010.57,0004.98,0004.60
2024-05-10 18:17:00,SystemResetWarning,0836.4,4.99,000.00,025.4,025.0,000.0,033.5,027.3,020.3,0000.0,0009.60,0004.92,0004.54
2024-05-10 18:18:00,SystemResetWarning,0836.4,4.99,000.00,025.5,025.1,000.0,033.6,027.3,020.2,0000.0,0009.49,0004.84,0004.47
2024-05-10 18:19:00,SystemResetWarning,0836.3,4.99,000.00,025.5,024.8,000.0,033.6,027.2,020.2,0000.0,0008.92,0004.75,0004.40
2024-05-10 18:20:00,SystemResetWarning,0836.2,5.00,000.00,025.2,022.9,000.0,033.7,026.2,020.4,0000.0,0008.96,0004.73,0004.36
2024-05-10 18:21:00,SystemResetWarning,0836.3,5.01,000.00,024.8,022.1,000.0,033.7,025.7,021.3,0000.0,0009.08,0004.71,0004.34
2024-05-10 18:22:00,SystemResetWarning,0836.2,5.01,000.00,024.7,022.4,000.0,033.6,025.8,020.9,0000.0,0009.08,0004.69,0004.33
2024-05-10 18:23:00,SystemResetWarning,0836.3,5.00,000.00,024.7,022.7,000.0,033.4,026.0,020.8,0000.0,0009.16,0004.72,0004.35
2024-05-10 18:24:00,SystemResetWarning,0836.3,5.00,000.00,024.7,023.1,000.0,033.3,026.2,021.3,0000.0,0009.21,0004.72,0004.34
2024-05-10 18:25:00,SystemResetWarning,0836.3,4.99,000.00,024.8,023.4,000.0,033.3,026.3,020.9,0000.0,0008.77,0004.69,0004.32
2024-05-10 18:26:00,SystemResetWarning,0836.2,5.00,000.00,024.8,023.6,000.0,033.3,026.5,021.0,0000.0,0008.58,0004.65,0004.31
2024-05-10 18:27:00,SystemResetWarning,0836.3,5.01,000.00,024.8,023.8,000.0,033.2,026.6,020.9,0000.0,0008.65,0004.61,0004.26
2024-05-10 18:28:00,SystemResetWarning,0836.3,5.00,000.00,024.9,024.0,000.0,033.2,026.7,020.6,0000.0,0008.67,0004.60,0004.24
2024-05-10 18:29:00,SystemResetWarning,0836.2,4.99,000.00,024.9,024.2,000.0,033.3,026.7,020.5,0000.0,0008.87,0004.58,0004.25
2024-05-10 18:30:00,SystemResetWarning,0836.2,5.00,000.00,025.0,024.3,000.0,033.3,026.8,021.0,0000.0,0009.31,0004.60,0004.27
2024-05-10 18:31:00,SystemResetWarning,0836.3,5.00,000.00,025.0,024.4,000.0,033.3,026.8,021.3,0000.0,0009.84,0004.60,0004.26
2024-05-10 18:32:00,SystemResetWarning,0836.2,5.00,000.00,025.1,024.5,000.0,033.3,026.9,020.8,0000.0,0009.22,0004.60,0004.26
2024-05-10 18:33:00,SystemResetWarning,0836.2,5.00,000.00,025.1,024.6,000.0,033.3,026.9,021.0,0000.0,0009.00,0004.59,0004.26
2024-05-10 18:34:00,SystemResetWarning,0836.2,5.00,000.00,025.1,024.7,000.0,033.3,027.0,020.7,0000.0,0009.09,0004.60,0004.27
2024-05-10 18:35:00,SystemResetWarning,0836.2,5.00,000.00,025.2,024.8,000.0,033.4,027.0,020.5,0000.0,0009.05,0004.58,0004.27
2024-05-10 18:36:00,SystemResetWarning,0836.2,5.00,000.00,025.2,024.8,000.0,033.4,027.1,020.5,0000.0,0009.09,0004.61,0004.29
2024-05-10 18:37:00,SystemResetWarning,0836.2,5.00,000.00,025.3,024.9,000.0,033.4,027.1,020.2,0000.0,0009.17,0004.65,0004.33
2024-05-10 18:38:00,SystemResetWarning,0836.2,5.00,000.00,025.3,024.9,000.0,033.4,027.2,020.1,0000.0,0009.28,0004.71,0004.38
2024-05-10 18:39:00,SystemResetWarning,0836.2,5.00,000.00,025.4,025.0,000.0,033.5,027.2,020.6,0000.0,0009.27,0004.73,0004.42
2024-05-10 18:40:00,SystemResetWarning,0836.2,5.01,000.00,025.4,025.0,000.0,033.5,027.2,020.7,0000.0,0009.33,0004.74,0004.42
2024-05-10 18:41:00,SystemResetWarning,0836.1,4.99,000.00,025.3,023.5,000.0,033.6,026.4,020.7,0000.0,0008.55,0004.76,0004.43
2024-05-10 18:42:00,SystemResetWarning,0836.1,5.01,000.00,024.9,022.1,000.0,033.6,025.7,021.5,0000.0,0008.32,0004.79,0004.46
2024-05-10 18:43:00,SystemResetWarning,0836.1,5.01,000.00,024.7,022.2,000.0,033.5,025.7,022.2,0000.0,0008.39,0004.79,0004.47
2024-05-10 18:44:00,SystemResetWarning,0836.1,5.00,000.00,024.6,022.5,000.0,033.4,025.9,021.8,0000.0,0008.43,0004.80,0004.48
2024-05-10 18:45:00,SystemResetWarning,0836.1,5.00,000.00,024.7,022.9,000.0,033.3,026.1,022.3,0000.0,0008.44,0004.79,0004.48
2024-05-10 18:46:00,SystemResetWarning,0836.1,5.00,000.00,024.7,023.2,000.0,033.2,026.3,022.3,0000.0,0008.73,0004.77,0004.45
2024-05-10 18:47:00,SystemResetWarning,0836.1,5.00,000.00,024.7,023.5,000.0,033.2,026.4,022.6,0000.0,0009.00,0004.73,0004.41
2024-05-10 18:48:00,SystemResetWarning,0836.1,5.00,000.00,024.7,023.7,000.0,033.2,026.4,022.9,0000.0,0008.95,0004.67,0004.35
2024-05-10 18:49:00,SystemResetWarning,0836.1,5.01,000.00,024.8,023.9,000.0,033.2,026.5,021.9,0000.0,0008.83,0004.60,0004.29
2024-05-10 18:50:00,SystemResetWarning,0836.1,5.00,000.00,024.8,024.0,000.0,033.2,026.6,021.5,0000.0,0009.03,0004.57,0004.24
2024-05-10 18:51:00,SystemResetWarning,0836.1,5.00,000.00,024.9,024.2,000.0,033.2,026.7,021.5,0000.0,0009.04,0004.58,0004.22
2024-05-10 18:52:00,SystemResetWarning,0836.1,5.00,000.00,024.9,024.3,000.0,033.2,026.8,021.6,0000.0,0009.02,0004.56,0004.19
2024-05-10 18:53:00,SystemResetWarning,0836.1,5.01,000.00,025.0,024.4,000.0,033.2,026.8,021.5,0000.0,0008.83,0004.55,0004.16
2024-05-10 18:54:00,SystemResetWarning,0836.1,5.00,000.00,025.0,024.5,000.0,033.3,026.9,021.4,0000.0,0008.50,0004.56,0004.17
2024-05-10 18:55:00,SystemResetWarning,0836.1,5.00,000.00,025.0,024.6,000.0,033.3,026.9,021.3,0000.0,0008.53,0004.57,0004.16
2024-05-10 18:56:00,SystemResetWarning,0836.1,5.00,000.00,025.1,024.6,000.0,033.3,027.0,020.9,0000.0,0008.45,0004.58,0004.18
2024-05-10 18:57:00,SystemResetWarning,0836.1,5.00,000.00,025.1,024.7,000.0,033.3,027.0,021.1,0000.0,0008.25,0004.60,0004.21
2024-05-10 18:58:00,SystemResetWarning,0836.1,5.00,000.00,025.2,024.7,000.0,033.4,027.1,021.3,0000.0,0007.98,0004.64,0004.24
2024-05-10 18:59:00,SystemResetWarning,0836.1,5.00,000.00,025.2,024.8,000.0,033.4,027.1,021.3,0000.0,0008.11,0004.70,0004.28
